CZ-6A DEB, 61493

Orbit data source: Space-Track

CZ-6A DEB, 61493 is space debris in LEO originally from a launch on Tue, 06 Aug 2024 UTC launched from the Taiyaun Space Center, China (TSC). Debris objects in space refer to the collection of defunct objects orbiting the Earth. Examples of debris include non-operational satellites, rocket bodies, and fragments generated from explosions, collisions, or faulty payload assembly.

Loading next visibility...
Identifier
61493, 2024-140ABB
Orbit
LEO
Country
Flag of CNCN / PRC
Related business
Manufacturer
SAST
Mission
Spacecraft
Bus & Motor
Unknown
Mass
Unknown
Launch date (UTC)
2024-08-06 (1 year ago)
Launch vehicle
Unknown
Launch site
Taiyaun Space Center, China (TSC)
Object type
Payload
Rocket body
Debris
Shape & HBR
Unknown shape, 0.2 m
Radar Cross Section
Small (<0.1 m²)

Expand to show TLE details & history
Last TLE update: 1 day ago

TLE from 1 day ago
0 CZ-6A DEB
1 61493U 24140ABB 25341.11473599  .00000870  00000-0  39603-3 0  9997
2 61493  89.0075 296.7765 0047407  61.8550 298.7418 14.20263012 63327
Epoch: 2025-12-07T02:45Z
TLE epoch observation values (Epoch: 2025-12-07T02:45:13.189Z)
Latitude
-0.00005°
Longitude
179.33878°
Altitude
811.219 km
Speed
7.456 km/s
True Right ascension
19h 47m 06s
True Declination
0° 00' 00"
Sunlit
Object was in daylight at epoch
Visualization orbit readout
Latitude
Unknown
Longitude
Unknown
Altitude
Unknown
Speed
Unknown
Apparent Right ascension
Unknown
Apparent Declination
Unknown
Sunlit
N/A
Visualization observer readout
Local Sidereal Time
01:09:37
Azimuth
Unknown
Elevation
Unknown
Doppler factor
Unknown
Orbital elements
Apogee altitude
855.545 km
Perigee altitude
787.283 km
Semi-major axis
7,199.551 km
Eccentricity
0.00474
Inclination
89.0075°
RAAN
296.7765°
Arg. of periapsis
61.855°
True anomaly
298.26413°
Mean anomaly
298.7418°
Eccentric anomaly
298.5031°
Mean motion
3.55292 °/min
Orbital period
101.33 mins
BSTAR
0.00039603
Loading maneuver chart data...
Computing Atmospheric mass density...
Loading historical data...
Loading historical data...
Loading historical data...
Loading historical data...
Loading historical data...
Loading historical data...
Loading historical data...

Documentation

Showing up to 5 results
|